Location: Bacea
(45.9500°N, 22.6667°E)
Time: 00:52:12
(UTC+00:00)

Okean O Rocket - Pass Details

Date: 16 October 2021
Orbit: 623 x 643 km, 98.2° (Epoch: 02 December)

Event Time Altitude Azimuth Distance (km) Brightness Sun altitude
Rises 16:18:21 0° 154° (SSE) 2,892 4.8 -7.2°
Reaches altitude 10° 16:20:33 10° 151° (SSE) 1,990 3.9 -7.5°
Maximum altitude 16:24:48 58° 73° (ENE) 729 1.6 -8.3°
Drops below altitude 10° 16:29:05 10° 354° (N) 2,008 4.2 -9.0°
Sets 16:31:19 0° 350° (N) 2,922 5.1 -9.4°
